Back to catalog

HJ-1A

AliveScienceSSO
NORAD 33320·PAYLOAD·🇨🇳 China

Launched Sep 6, 2008 from Taiyuan Satellite Launch Center

Loading…

Next Passes (next 24 hours)

TLE

FreshSource: Space-Track

Epoch: Sep 14, 2026, 15:17 UTC

1 33320U 08041A   26257.63692100  .00000320  00000-0  44423-4 0  9999
2 33320  97.6779 240.0704 0018085 200.8350 159.2130 14.84157684971674

Track HJ-1A in real time with AllMySat

Download on the App Store